Radiation Dose at Monitoring Post of Fukushima Daini Nuclear Power Station
Date,Time,MP-1(microSv/h),MP-2(microSv/h),MP-3(microSv/h),MP-4(microSv/h),MP-5(microSv/h),MP-6(microSv/h),MP-7(microSv/h),Wind Direction,Wind Velocity(m/s),Rain
2018/09/08,00:00,0.309,0.192,0.311,0.298,0.284,0.155,0.094,south,5.6,No
2018/09/08,00:10,0.309,0.191,0.311,0.299,0.285,0.153,0.094,south,6.6,No
2018/09/08,00:20,0.307,0.189,0.309,0.303,0.280,0.154,0.095,south,6.2,No
2018/09/08,00:30,0.309,0.190,0.310,0.298,0.283,0.154,0.094,south,6.9,No
2018/09/08,00:40,0.310,0.190,0.311,0.299,0.284,0.152,0.094,south,7.0,No
2018/09/08,00:50,0.307,0.190,0.308,0.301,0.281,0.154,0.095,south-southwest,5.7,No
2018/09/08,01:00,0.307,0.190,0.313,0.299,0.282,0.154,0.095,south-southwest,6.1,No
2018/09/08,01:10,0.311,0.189,0.311,0.299,0.285,0.155,0.093,south,6.3,No
2018/09/08,01:20,0.309,0.191,0.309,0.303,0.282,0.152,0.094,south,5.9,No
2018/09/08,01:30,0.307,0.191,0.311,0.298,0.280,0.154,0.095,south,5.2,No
2018/09/08,01:40,0.311,0.190,0.310,0.297,0.285,0.154,0.094,south,5.1,No
2018/09/08,01:50,0.308,0.191,0.308,0.301,0.281,0.153,0.094,south,5.8,No
2018/09/08,02:00,0.308,0.190,0.311,0.300,0.281,0.154,0.094,south,4.4,No
2018/09/08,02:10,0.311,0.189,0.311,0.297,0.286,0.153,0.093,south-southeast,2.9,No
2018/09/08,02:20,0.308,0.191,0.308,0.301,0.285,0.154,0.094,south-southeast,2.3,No
2018/09/08,02:30,0.307,0.190,0.311,0.301,0.280,0.154,0.095,south,2.8,No
2018/09/08,02:40,0.311,0.189,0.311,0.298,0.283,0.153,0.094,southeast,2.3,No
2018/09/08,02:50,0.310,0.191,0.307,0.299,0.284,0.153,0.093,south-southeast,3.6,No
2018/09/08,03:00,0.306,0.190,0.309,0.301,0.282,0.154,0.094,south-southeast,5.2,No
2018/09/08,03:10,0.311,0.189,0.312,0.298,0.281,0.154,0.095,south,3.9,No
2018/09/08,03:20,0.310,0.191,0.310,0.298,0.284,0.153,0.094,south-southwest,3.2,No
2018/09/08,03:30,0.307,0.190,0.308,0.301,0.283,0.153,0.095,south-southwest,4.8,No
2018/09/08,03:40,0.307,0.189,0.312,0.299,0.281,0.154,0.094,south,5.1,No
2018/09/08,03:50,0.311,0.190,0.310,0.297,0.284,0.153,0.094,south-southwest,2.8,No
2018/09/08,04:00,0.308,0.190,0.308,0.301,0.284,0.154,0.093,south,3.3,No
2018/09/08,04:10,0.307,0.189,0.310,0.300,0.281,0.154,0.094,south,3.2,No
2018/09/08,04:20,0.311,0.190,0.311,0.298,0.282,0.153,0.094,south,5.6,No
2018/09/08,04:30,0.309,0.191,0.308,0.300,0.284,0.153,0.093,south,5.3,No
2018/09/08,04:40,0.305,0.188,0.310,0.300,0.281,0.154,0.094,south,4.8,No
2018/09/08,04:50,0.309,0.190,0.311,0.297,0.280,0.153,0.092,south-southwest,4.4,No
2018/09/08,05:00,0.311,0.190,0.309,0.300,0.284,0.153,0.093,south,3.4,No
2018/09/08,05:10,0.309,0.189,0.309,0.302,0.284,0.154,0.094,south-southwest,4.0,No
2018/09/08,05:20,0.308,0.191,0.311,0.299,0.280,0.153,0.093,south-southwest,4.4,No
2018/09/08,05:30,0.311,0.191,0.311,0.298,0.283,0.153,0.094,south,5.5,No
2018/09/08,05:40,0.308,0.189,0.308,0.300,0.284,0.155,0.094,south,6.2,No
2018/09/08,05:50,0.306,0.191,0.313,0.299,0.280,0.154,0.095,south-southwest,5.9,No
2018/09/08,06:00,0.312,0.191,0.312,0.297,0.281,0.153,0.094,south-southwest,4.7,No
2018/09/08,06:10,0.310,0.190,0.309,0.301,0.284,0.154,0.094,south-southwest,3.1,No
2018/09/08,06:20,0.308,0.189,0.308,0.301,0.284,0.154,0.093,south,1.0,No
2018/09/08,06:30,0.307,0.192,0.312,0.297,0.282,0.153,0.094,south-southwest,3.2,No
2018/09/08,06:40,0.311,0.190,0.310,0.295,0.278,0.153,0.093,south-southwest,3.6,No
2018/09/08,06:50,0.309,0.189,0.309,0.301,0.284,0.153,0.093,south-southwest,2.5,No
2018/09/08,07:00,0.308,0.190,0.311,0.302,0.284,0.154,0.093,south-southwest,1.2,No
2018/09/08,07:10,0.311,0.192,0.313,0.299,0.282,0.154,0.094,-,CALM,No
2018/09/08,07:20,0.312,0.190,0.310,0.298,0.281,0.154,0.095,-,CALM,No
2018/09/08,07:30,0.310,0.189,0.309,0.302,0.282,0.155,0.094,northwest,1.2,No
2018/09/08,07:40,0.308,0.192,0.313,0.302,0.285,0.155,0.094,north,1.2,No
2018/09/08,07:50,0.311,0.192,0.313,0.300,0.284,0.155,0.096,north,0.9,No
2018/09/08,08:00,0.313,0.191,0.311,0.298,0.284,0.154,0.096,north,2.1,No
2018/09/08,08:10,0.309,0.190,0.310,0.302,0.281,0.155,0.095,north,2.9,No
2018/09/08,08:20,0.307,0.190,0.310,0.304,0.283,0.156,0.095,north,3.4,No
2018/09/08,08:30,0.307,0.192,0.314,0.301,0.285,0.156,0.095,north-northwest,3.8,No
2018/09/08,08:40,0.313,0.193,0.311,0.298,0.285,0.156,0.095,north,3.2,No
2018/09/08,08:50,0.313,0.192,0.311,0.299,0.283,0.154,0.095,north,2.6,No
2018/09/08,09:00,0.310,0.191,0.308,0.300,0.281,0.154,0.095,north,4.0,No
2018/09/08,09:10,0.308,0.190,0.311,0.302,0.280,0.155,0.095,north-northeast,4.6,No
2018/09/08,09:20,0.310,0.192,0.314,0.302,0.285,0.155,0.095,north-northeast,4.1,No
2018/09/08,09:30,0.313,0.192,0.313,0.300,0.286,0.155,0.095,north,4.1,No
2018/09/08,09:40,0.310,0.192,0.309,0.300,0.284,0.156,0.096,north,5.7,Yes
2018/09/08,09:50,0.308,0.191,0.311,0.302,0.284,0.154,0.095,north-northeast,7.3,No
2018/09/08,10:00,0.313,0.193,0.315,0.302,0.286,0.154,0.095,north-northeast,6.9,No
2018/09/08,10:10,0.312,0.191,0.312,0.301,0.288,0.156,0.095,north,5.6,No
2018/09/08,10:20,0.310,0.191,0.310,0.299,0.285,0.155,0.096,north,5.4,No
2018/09/08,10:30,0.307,0.191,0.311,0.303,0.283,0.155,0.096,north,5.1,No
2018/09/08,10:40,0.310,0.192,0.314,0.303,0.281,0.155,0.094,north,3.9,No
2018/09/08,10:50,0.313,0.192,0.310,0.301,0.287,0.156,0.095,north,3.8,No
2018/09/08,11:00,0.310,0.191,0.310,0.299,0.285,0.155,0.096,north,5.1,No
2018/09/08,11:10,0.308,0.191,0.311,0.301,0.283,0.155,0.096,north,4.1,Yes
2018/09/08,11:20,0.309,0.192,0.314,0.302,0.281,0.155,0.095,north,3.4,Yes
2018/09/08,11:30,0.314,0.192,0.312,0.300,0.283,0.154,0.096,north,3.8,Yes
2018/09/08,11:40,0.311,0.190,0.308,0.298,0.288,0.156,0.094,north,4.2,No
2018/09/08,11:50,0.309,0.191,0.313,0.301,0.285,0.156,0.095,north,3.6,No
2018/09/08,12:00,0.306,0.192,0.313,0.303,0.282,0.154,0.096,north,4.5,No
2018/09/08,12:10,0.312,0.193,0.310,0.300,0.281,0.155,0.095,north,4.8,No
2018/09/08,12:20,0.313,0.193,0.309,0.299,0.285,0.155,0.094,north-northeast,4.0,No
2018/09/08,12:30,0.310,0.190,0.313,0.301,0.287,0.155,0.094,north-northeast,4.6,No
2018/09/08,12:40,0.308,0.190,0.314,0.302,0.284,0.156,0.095,north,4.0,Yes
2018/09/08,12:50,0.314,0.193,0.312,0.301,0.282,0.156,0.096,north,4.0,Yes
2018/09/08,13:00,0.314,0.195,0.311,0.301,0.284,0.154,0.096,north,5.2,Yes
2018/09/08,13:10,0.310,0.193,0.315,0.303,0.288,0.156,0.097,north,4.9,Yes
2018/09/08,13:20,0.312,0.194,0.313,0.303,0.284,0.158,0.097,north-northeast,5.4,No
2018/09/08,13:30,0.314,0.193,0.310,0.301,0.283,0.156,0.096,north,4.5,Yes
2018/09/08,13:40,0.311,0.192,0.316,0.302,0.290,0.157,0.096,north,4.7,Yes
2018/09/08,13:50,0.312,0.195,0.314,0.304,0.285,0.158,0.098,north,4.3,Yes
2018/09/08,14:00,0.314,0.194,0.312,0.302,0.284,0.157,0.098,north,3.6,Yes
2018/09/08,14:10,0.311,0.192,0.315,0.301,0.287,0.157,0.098,north,2.1,Yes
2018/09/08,14:20,0.308,0.194,0.314,0.304,0.287,0.158,0.098,north,2.7,Yes
2018/09/08,14:30,0.314,0.194,0.311,0.303,0.283,0.158,0.098,north-northwest,4.3,No
2018/09/08,14:40,0.313,0.192,0.314,0.299,0.283,0.156,0.097,north,4.9,No
2018/09/08,14:50,0.310,0.194,0.313,0.303,0.285,0.156,0.096,north-northwest,4.1,No
2018/09/08,15:00,0.312,0.192,0.311,0.303,0.285,0.156,0.096,north-northwest,3.3,No
2018/09/08,15:10,0.314,0.191,0.311,0.299,0.282,0.156,0.096,north-northwest,3.1,Yes
2018/09/08,15:20,0.311,0.191,0.315,0.301,0.284,0.155,0.097,north-northeast,3.0,Yes
2018/09/08,15:30,0.310,0.194,0.312,0.302,0.284,0.156,0.097,northwest,3.5,Yes
2018/09/08,15:40,0.313,0.192,0.311,0.298,0.282,0.158,0.098,north,3.6,No
2018/09/08,15:50,0.310,0.193,0.315,0.300,0.283,0.155,0.096,north,2.7,No
2018/09/08,16:00,0.309,0.193,0.311,0.301,0.285,0.156,0.096,north,2.2,No
2018/09/08,16:10,0.312,0.191,0.309,0.300,0.282,0.155,0.096,north-northeast,1.4,No
2018/09/08,16:20,0.313,0.189,0.313,0.298,0.279,0.155,0.096,northeast,2.0,No
2018/09/08,16:30,0.308,0.191,0.311,0.301,0.283,0.154,0.095,east-northeast,1.6,No
2018/09/08,16:40,0.308,0.193,0.308,0.301,0.284,0.154,0.095,-,CALM,No
2018/09/08,16:50,0.311,0.190,0.311,0.297,0.281,0.154,0.095,-,CALM,No
2018/09/08,17:00,0.309,0.191,0.312,0.299,0.279,0.153,0.094,southeast,1.0,No
2018/09/08,17:10,0.307,0.192,0.308,0.300,0.284,0.153,0.094,south-southeast,1.1,No
2018/09/08,17:20,0.311,0.190,0.310,0.298,0.282,0.154,0.094,southeast,0.7,No
2018/09/08,17:30,0.310,0.189,0.311,0.298,0.279,0.153,0.094,southeast,1.1,No
2018/09/08,17:40,0.308,0.192,0.308,0.300,0.282,0.152,0.095,south,0.7,No
2018/09/08,17:50,0.310,0.189,0.312,0.298,0.283,0.154,0.095,east,0.6,No
2018/09/08,18:00,0.310,0.190,0.310,0.300,0.280,0.153,0.094,east,0.7,No
2018/09/08,18:10,0.308,0.190,0.308,0.299,0.283,0.151,0.094,-,CALM,No
2018/09/08,18:20,0.310,0.189,0.311,0.298,0.283,0.153,0.095,east-southeast,0.7,No
2018/09/08,18:30,0.309,0.190,0.311,0.299,0.280,0.153,0.094,-,CALM,No
2018/09/08,18:40,0.307,0.191,0.310,0.299,0.280,0.153,0.093,northeast,0.8,No
2018/09/08,18:50,0.311,0.189,0.312,0.298,0.283,0.153,0.094,north-northeast,0.6,No
2018/09/08,19:00,0.311,0.192,0.310,0.300,0.280,0.154,0.094,east-northeast,0.7,No
2018/09/08,19:10,0.307,0.190,0.310,0.300,0.279,0.152,0.095,-,CALM,No
2018/09/08,19:20,0.309,0.191,0.313,0.297,0.283,0.153,0.095,northwest,1.1,No
2018/09/08,19:30,0.310,0.192,0.309,0.299,0.283,0.154,0.092,northwest,0.9,No
2018/09/08,19:40,0.307,0.190,0.310,0.299,0.280,0.152,0.094,north-northwest,0.8,Yes
2018/09/08,19:50,0.312,0.191,0.312,0.298,0.283,0.153,0.094,north-northeast,1.0,Yes
2018/09/08,20:00,0.309,0.191,0.309,0.299,0.283,0.154,0.094,north,1.0,No
2018/09/08,20:10,0.308,0.189,0.311,0.299,0.279,0.153,0.095,west-southwest,2.2,Yes
2018/09/08,20:20,0.311,0.191,0.310,0.296,0.283,0.152,0.095,east-southeast,1.1,Yes
2018/09/08,20:30,0.308,0.191,0.308,0.300,0.280,0.154,0.094,northeast,1.0,Yes
2018/09/08,20:40,0.307,0.189,0.311,0.298,0.279,0.152,0.095,north-northeast,0.6,Yes
2018/09/08,20:50,0.310,0.192,0.311,0.296,0.283,0.154,0.094,north-northeast,0.9,Yes
2018/09/08,21:00,0.307,0.191,0.309,0.299,0.282,0.154,0.094,northeast,1.2,Yes
2018/09/08,21:10,0.309,0.192,0.313,0.299,0.280,0.153,0.096,west-northwest,0.6,Yes
2018/09/08,21:20,0.311,0.192,0.310,0.298,0.284,0.154,0.095,-,CALM,Yes
2018/09/08,21:30,0.307,0.190,0.309,0.299,0.281,0.154,0.096,north-northeast,0.8,No
2018/09/08,21:40,0.310,0.192,0.310,0.296,0.281,0.153,0.094,-,CALM,No
2018/09/08,21:50,0.310,0.192,0.309,0.296,0.282,0.154,0.094,northeast,0.6,No
2018/09/08,22:00,0.307,0.190,0.310,0.299,0.279,0.153,0.095,-,CALM,No
2018/09/08,22:10,0.309,0.190,0.311,0.295,0.282,0.152,0.094,north-northeast,0.7,No
2018/09/08,22:20,0.308,0.188,0.308,0.299,0.282,0.154,0.093,-,CALM,No
2018/09/08,22:30,0.306,0.191,0.311,0.298,0.278,0.153,0.094,-,CALM,Yes
2018/09/08,22:40,0.310,0.190,0.309,0.296,0.281,0.152,0.094,-,CALM,No
2018/09/08,22:50,0.307,0.189,0.307,0.299,0.280,0.152,0.094,north-northeast,0.7,No
2018/09/08,23:00,0.307,0.191,0.312,0.296,0.278,0.153,0.094,-,CALM,No
2018/09/08,23:10,0.308,0.189,0.308,0.296,0.282,0.152,0.093,north,1.0,No
2018/09/08,23:20,0.306,0.190,0.309,0.300,0.281,0.152,0.095,north-northwest,1.4,No
2018/09/08,23:30,0.307,0.191,0.310,0.295,0.278,0.152,0.094,north-northwest,0.9,No
2018/09/08,23:40,0.310,0.189,0.307,0.297,0.281,0.151,0.093,north,1.2,No
2018/09/08,23:50,0.306,0.190,0.311,0.299,0.280,0.153,0.094,north,1.1,No
